owner,sensor,date,latitude,longitude,vertical_datum,sea_water_practical_salinity,qcFlag 
DISL,ioos:station:DISL:BSCA:1,2018-03-02T10:00:00Z,30.3288,-87.8293,1.843,12.12,1111122 
DISL,ioos:station:DISL:BSCA:1,2018-03-02T12:30:00Z,30.3288,-87.8293,1.686,12.42,1111122 
DISL,ioos:station:DISL:BSCA:1,2018-03-02T13:30:00Z,30.3288,-87.8293,1.662,12.46,1111122 
DISL,ioos:station:DISL:BSCA:1,2018-03-02T14:30:00Z,30.3288,-87.8293,1.637,12.58,1111122 
DISL,ioos:station:DISL:BSCA:1,2018-03-02T15:30:00Z,30.3288,-87.8293,1.642,12.54,1111122 
DISL,ioos:station:DISL:BSCA:1,2018-03-02T16:00:00Z,30.3288,-87.8293,1.648,12.55,1111122 
DISL,ioos:station:DISL:BSCA:1,2018-03-02T17:00:00Z,30.3288,-87.8293,1.64,12.49,1111122 
DISL,ioos:station:DISL:BSCA:1,2018-03-02T18:00:00Z,30.3288,-87.8293,1.681,12.52,1111122 
DISL,ioos:station:DISL:BSCA:1,2018-03-02T19:30:00Z,30.3288,-87.8293,1.789,12.68,1111122 
DISL,ioos:station:DISL:BSCA:1,2018-03-02T20:00:00Z,30.3288,-87.8293,1.801,12.79,1111122 
DISL,ioos:station:DISL:BSCA:1,2018-03-02T21:00:00Z,30.3288,-87.8293,1.804,12.92,1111122 
DISL,ioos:station:DISL:BSCA:1,2018-03-02T22:00:00Z,30.3288,-87.8293,1.793,12.87,1111122 
DISL,ioos:station:DISL:BSCA:1,2018-03-02T23:00:00Z,30.3288,-87.8293,1.805,12.75,1111122 
DISL,ioos:station:DISL:BSCA:1,2018-03-03T00:00:00Z,30.3288,-87.8293,1.828,12.74,1111122 
DISL,ioos:station:DISL:BSCA:1,2018-03-03T01:00:00Z,30.3288,-87.8293,1.852,12.73,1111122 
DISL,ioos:station:DISL:BSCA:1,2018-03-03T02:30:00Z,30.3288,-87.8293,1.875,12.96,1111122 
DISL,ioos:station:DISL:BSCA:1,2018-03-03T03:00:00Z,30.3288,-87.8293,1.89,13.06,1111122 
DISL,ioos:station:DISL:BSCA:1,2018-03-03T04:00:00Z,30.3288,-87.8293,1.929,12.86,1111122 
DISL,ioos:station:DISL:BSCA:1,2018-03-03T05:30:00Z,30.3288,-87.8293,1.937,13.08,1111122 
DISL,ioos:station:DISL:BSCA:1,2018-03-03T06:00:00Z,30.3288,-87.8293,1.929,13.11,1111122 
DISL,ioos:station:DISL:BSCA:1,2018-03-03T07:00:00Z,30.3288,-87.8293,1.911,13.28,1111122 
DISL,ioos:station:DISL:BSCA:1,2018-03-03T08:30:00Z,30.3288,-87.8293,1.883,13.18,1111122 
DISL,ioos:station:DISL:BSCA:1,2018-03-03T09:30:00Z,30.3288,-87.8293,1.846,13.07,1111122 
DISL,ioos:station:DISL:BSCA:1,2018-03-03T10:30:00Z,30.3288,-87.8293,1.782,13.2,1111122 
DISL,ioos:station:DISL:BSCA:1,2018-03-03T11:30:00Z,30.3288,-87.8293,1.729,13.19,1111122 
DISL,ioos:station:DISL:BSCA:1,2018-03-03T12:30:00Z,30.3288,-87.8293,1.716,13.27,1111122 
DISL,ioos:station:DISL:BSCA:1,2018-03-03T13:30:00Z,30.3288,-87.8293,1.696,13.37,1111122 
DISL,ioos:station:DISL:BSCA:1,2018-03-03T14:30:00Z,30.3288,-87.8293,1.692,13.34,1111122 
DISL,ioos:station:DISL:BSCA:1,2018-03-03T15:30:00Z,30.3288,-87.8293,1.716,13.34,1111122 
DISL,ioos:station:DISL:BSCA:1,2018-03-03T16:00:00Z,30.3288,-87.8293,1.731,13.36,1111122 
DISL,ioos:station:DISL:BSCA:1,2018-03-04T05:00:00Z,30.3288,-87.8293,1.849,11.41,1111122 
DISL,ioos:station:DISL:BSCA:1,2018-03-04T05:30:00Z,30.3288,-87.8293,1.85,11.98,1111122 
DISL,ioos:station:DISL:BSCA:1,2018-03-04T06:30:00Z,30.3288,-87.8293,1.854,12.75,1111122 
DISL,ioos:station:DISL:BSCA:1,2018-03-04T07:30:00Z,30.3288,-87.8293,1.87,13.5,1111122 
DISL,ioos:station:DISL:BSCA:1,2018-03-04T08:30:00Z,30.3288,-87.8293,1.855,12.37,1111122 
DISL,ioos:station:DISL:BSCA:1,2018-03-04T09:30:00Z,30.3288,-87.8293,1.822,10.73,1111122 
DISL,ioos:station:DISL:BSCA:1,2018-03-04T10:30:00Z,30.3288,-87.8293,1.765,10.17,1111122 
DISL,ioos:station:DISL:BSCA:1,2018-03-04T11:30:00Z,30.3288,-87.8293,1.734,10.5,1111122 
DISL,ioos:station:DISL:BSCA:1,2018-03-04T12:30:00Z,30.3288,-87.8293,1.731,10.46,1111122 
DISL,ioos:station:DISL:BSCA:1,2018-03-04T13:30:00Z,30.3288,-87.8293,1.765,9.83,1111122 
DISL,ioos:station:DISL:BSCA:1,2018-03-04T14:30:00Z,30.3288,-87.8293,1.781,9.9,1111122 
DISL,ioos:station:DISL:BSCA:1,2018-03-04T15:30:00Z,30.3288,-87.8293,1.798,9.59,1111122 
DISL,ioos:station:DISL:BSCA:1,2018-03-05T00:30:00Z,30.3288,-87.8293,1.885,9.16,1111122 
DISL,ioos:station:DISL:BSCA:1,2018-03-05T01:30:00Z,30.3288,-87.8293,1.894,9.57,1111122 
DISL,ioos:station:DISL:BSCA:1,2018-03-05T02:30:00Z,30.3288,-87.8293,1.884,9.57,1111122 
DISL,ioos:station:DISL:BSCA:1,2018-03-05T03:30:00Z,30.3288,-87.8293,1.877,9.56,1111122 
DISL,ioos:station:DISL:BSCA:1,2018-03-05T04:30:00Z,30.3288,-87.8293,1.891,9.53,1111122 
DISL,ioos:station:DISL:BSCA:1,2018-03-05T05:30:00Z,30.3288,-87.8293,1.909,9.7,1111122 
DISL,ioos:station:DISL:BSCA:1,2018-03-05T06:30:00Z,30.3288,-87.8293,1.904,10.05,1111122 
DISL,ioos:station:DISL:BSCA:1,2018-03-05T07:30:00Z,30.3288,-87.8293,1.9,10.45,1111122 
DISL,ioos:station:DISL:BSCA:1,2018-03-05T08:30:00Z,30.3288,-87.8293,1.917,10.55,1111122 
DISL,ioos:station:DISL:BSCA:1,2018-03-05T09:30:00Z,30.3288,-87.8293,1.941,10.69,1111122 
DISL,ioos:station:DISL:BSCA:1,2018-03-05T10:30:00Z,30.3288,-87.8293,1.951,10.55,1111122 
DISL,ioos:station:DISL:BSCA:1,2018-03-05T11:30:00Z,30.3288,-87.8293,1.936,10.12,1111122 
DISL,ioos:station:DISL:BSCA:1,2018-03-05T12:30:00Z,30.3288,-87.8293,1.912,9.76,1111122 
DISL,ioos:station:DISL:BSCA:1,2018-03-05T14:30:00Z,30.3288,-87.8293,1.989,8.62,1111122 
DISL,ioos:station:DISL:BSCA:1,2018-03-05T15:30:00Z,30.3288,-87.8293,1.996,7.15,1111122 
DISL,ioos:station:DISL:BSCA:1,2018-03-05T17:00:00Z,30.3288,-87.8293,1.961,6.69,1111122 
DISL,ioos:station:DISL:BSCA:1,2018-03-05T18:00:00Z,30.3288,-87.8293,1.98,6.6,1111122 
DISL,ioos:station:DISL:BSCA:1,2018-03-05T18:30:00Z,30.3288,-87.8293,1.98,6.98,1111122 
DISL,ioos:station:DISL:BSCA:1,2018-03-05T20:00:00Z,30.3288,-87.8293,1.997,6.72,1111122 
DISL,ioos:station:DISL:BSCA:1,2018-03-05T21:00:00Z,30.3288,-87.8293,1.992,7.2,1111122 
DISL,ioos:station:DISL:BSCA:1,2018-03-05T22:00:00Z,30.3288,-87.8293,2.003,6.83,1111122 
DISL,ioos:station:DISL:BSCA:1,2018-03-05T22:30:00Z,30.3288,-87.8293,1.985,6.72,1111122 
DISL,ioos:station:DISL:BSCA:1,2018-03-05T23:30:00Z,30.3288,-87.8293,1.941,6.77,1111122 
DISL,ioos:station:DISL:BSCA:1,2018-03-06T00:30:00Z,30.3288,-87.8293,1.919,6.91,1111122 
DISL,ioos:station:DISL:BSCA:1,2018-03-06T01:30:00Z,30.3288,-87.8293,1.898,6.88,1111122 
DISL,ioos:station:DISL:BSCA:1,2018-03-06T02:30:00Z,30.3288,-87.8293,1.887,6.87,1111122 
DISL,ioos:station:DISL:BSCA:1,2018-03-06T03:30:00Z,30.3288,-87.8293,1.892,6.86,1111122 
DISL,ioos:station:DISL:BSCA:1,2018-03-06T04:30:00Z,30.3288,-87.8293,1.901,6.87,1111122 
DISL,ioos:station:DISL:BSCA:1,2018-03-07T00:30:00Z,30.3288,-87.8293,1.987,8.05,1111122 
DISL,ioos:station:DISL:BSCA:1,2018-03-07T01:30:00Z,30.3288,-87.8293,1.978,8.14,1111122 
DISL,ioos:station:DISL:BSCA:1,2018-03-07T02:30:00Z,30.3288,-87.8293,1.951,8.13,1111122 
DISL,ioos:station:DISL:BSCA:1,2018-03-07T03:30:00Z,30.3288,-87.8293,1.933,7.93,1111122 
DISL,ioos:station:DISL:BSCA:1,2018-03-07T04:30:00Z,30.3288,-87.8293,1.945,7.77,1111122 
DISL,ioos:station:DISL:BSCA:1,2018-03-07T05:30:00Z,30.3288,-87.8293,1.938,7.88,1111122 
DISL,ioos:station:DISL:BSCA:1,2018-03-07T06:30:00Z,30.3288,-87.8293,1.861,8.09,1111122 
DISL,ioos:station:DISL:BSCA:1,2018-03-07T07:30:00Z,30.3288,-87.8293,1.843,8.1,1111122 
DISL,ioos:station:DISL:BSCA:1,2018-03-07T08:30:00Z,30.3288,-87.8293,1.909,7.9,1111122 
DISL,ioos:station:DISL:BSCA:1,2018-03-07T09:30:00Z,30.3288,-87.8293,1.9,7.81,1111122 
DISL,ioos:station:DISL:BSCA:1,2018-03-07T10:30:00Z,30.3288,-87.8293,1.903,7.38,1111122 
DISL,ioos:station:DISL:BSCA:1,2018-03-07T11:30:00Z,30.3288,-87.8293,1.896,7.35,1111122 
DISL,ioos:station:DISL:BSCA:1,2018-03-07T12:30:00Z,30.3288,-87.8293,1.824,7.34,1111122 
DISL,ioos:station:DISL:BSCA:1,2018-03-07T13:30:00Z,30.3288,-87.8293,1.841,7.34,1111122 
DISL,ioos:station:DISL:BSCA:1,2018-03-07T14:30:00Z,30.3288,-87.8293,1.853,7.51,1111122 
DISL,ioos:station:DISL:BSCA:1,2018-03-07T15:30:00Z,30.3288,-87.8293,1.868,7.77,1111122 
DISL,ioos:station:DISL:BSCA:1,2018-03-07T16:30:00Z,30.3288,-87.8293,1.925,8.07,1111122 
DISL,ioos:station:DISL:BSCA:1,2018-03-07T17:30:00Z,30.3288,-87.8293,1.955,10.15,1111122 
DISL,ioos:station:DISL:BSCA:1,2018-03-07T18:00:00Z,30.3288,-87.8293,1.963,10.51,1111122 
DISL,ioos:station:DISL:BSCA:1,2018-03-08T00:30:00Z,30.3288,-87.8293,1.95,11.02,1111122 
DISL,ioos:station:DISL:BSCA:1,2018-03-08T01:30:00Z,30.3288,-87.8293,1.929,11.59,1111122 
DISL,ioos:station:DISL:BSCA:1,2018-03-08T02:30:00Z,30.3288,-87.8293,1.883,9.46,1111122 
DISL,ioos:station:DISL:BSCA:1,2018-03-08T03:30:00Z,30.3288,-87.8293,1.814,10.3,1111122 
DISL,ioos:station:DISL:BSCA:1,2018-03-08T04:30:00Z,30.3288,-87.8293,1.751,10.85,1111122 
DISL,ioos:station:DISL:BSCA:1,2018-03-08T05:30:00Z,30.3288,-87.8293,1.707,11.27,1111122 
DISL,ioos:station:DISL:BSCA:1,2018-03-08T06:30:00Z,30.3288,-87.8293,1.714,11.04,1111122 
DISL,ioos:station:DISL:BSCA:1,2018-03-08T07:30:00Z,30.3288,-87.8293,1.742,8.69,1111122 
DISL,ioos:station:DISL:BSCA:1,2018-03-08T08:30:00Z,30.3288,-87.8293,1.653,9.9,1111122 
DISL,ioos:station:DISL:BSCA:1,2018-03-08T09:30:00Z,30.3288,-87.8293,1.549,10.43,1111122 
DISL,ioos:station:DISL:BSCA:1,2018-03-08T10:30:00Z,30.3288,-87.8293,1.549,10.47,1111122 
DISL,ioos:station:DISL:BSCA:1,2018-03-08T11:30:00Z,30.3288,-87.8293,1.632,10.42,1111122 
DISL,ioos:station:DISL:BSCA:1,2018-03-08T22:30:00Z,30.3288,-87.8293,2.04,9.9,1111122 
DISL,ioos:station:DISL:BSCA:1,2018-03-08T23:30:00Z,30.3288,-87.8293,1.998,10.73,1111122 
DISL,ioos:station:DISL:BSCA:1,2018-03-09T00:30:00Z,30.3288,-87.8293,1.962,10.86,1111122 
DISL,ioos:station:DISL:BSCA:1,2018-03-09T01:30:00Z,30.3288,-87.8293,1.923,11.14,1111122 
DISL,ioos:station:DISL:BSCA:1,2018-03-09T02:30:00Z,30.3288,-87.8293,1.875,11.52,1111122 
DISL,ioos:station:DISL:BSCA:1,2018-03-09T03:30:00Z,30.3288,-87.8293,1.813,11.4,1111122 
DISL,ioos:station:DISL:BSCA:1,2018-03-09T04:30:00Z,30.3288,-87.8293,1.759,11.34,1111122 
DISL,ioos:station:DISL:BSCA:1,2018-03-09T05:30:00Z,30.3288,-87.8293,1.723,10.45,1111122 
DISL,ioos:station:DISL:BSCA:1,2018-03-09T06:30:00Z,30.3288,-87.8293,1.687,9.99,1111122 
DISL,ioos:station:DISL:BSCA:1,2018-03-09T07:30:00Z,30.3288,-87.8293,1.64,10.15,1111122 
DISL,ioos:station:DISL:BSCA:1,2018-03-09T08:00:00Z,30.3288,-87.8293,1.617,10.41,1111122 
DISL,ioos:station:DISL:BSCA:1,2018-03-09T09:30:00Z,30.3288,-87.8293,1.586,10.28,1111122 
DISL,ioos:station:DISL:BSCA:1,2018-03-09T10:30:00Z,30.3288,-87.8293,1.618,10.33,1111122 
DISL,ioos:station:DISL:BSCA:1,2018-03-09T12:00:00Z,30.3288,-87.8293,1.686,10.5,1111122 
DISL,ioos:station:DISL:BSCA:1,2018-03-09T14:00:00Z,30.3288,-87.8293,1.738,10.52,1111122 
DISL,ioos:station:DISL:BSCA:1,2018-03-09T14:30:00Z,30.3288,-87.8293,1.764,10.58,1111122 
DISL,ioos:station:DISL:BSCA:1,2018-03-09T15:00:00Z,30.3288,-87.8293,1.791,10.55,1111122 
DISL,ioos:station:DISL:BSCA:1,2018-03-10T00:30:00Z,30.3288,-87.8293,2.135,5.89,1111122 
DISL,ioos:station:DISL:BSCA:1,2018-03-10T01:30:00Z,30.3288,-87.8293,2.11,7.98,1111122 
DISL,ioos:station:DISL:BSCA:1,2018-03-10T02:30:00Z,30.3288,-87.8293,2.045,9.35,1111122 
DISL,ioos:station:DISL:BSCA:1,2018-03-10T03:30:00Z,30.3288,-87.8293,1.991,9.3,1111122 
DISL,ioos:station:DISL:BSCA:1,2018-03-10T04:30:00Z,30.3288,-87.8293,1.935,8.66,1111122 
DISL,ioos:station:DISL:BSCA:1,2018-03-10T05:30:00Z,30.3288,-87.8293,1.877,8.43,1111122 
DISL,ioos:station:DISL:BSCA:1,2018-03-10T06:30:00Z,30.3288,-87.8293,1.856,7.03,1111122 
DISL,ioos:station:DISL:BSCA:1,2018-03-10T07:30:00Z,30.3288,-87.8293,1.844,7.0,1111122 
DISL,ioos:station:DISL:BSCA:1,2018-03-10T08:30:00Z,30.3288,-87.8293,1.809,5.94,1111122 
DISL,ioos:station:DISL:BSCA:1,2018-03-10T09:30:00Z,30.3288,-87.8293,1.809,5.29,1111122 
DISL,ioos:station:DISL:BSCA:1,2018-03-10T10:30:00Z,30.3288,-87.8293,1.801,6.36,1111122 
DISL,ioos:station:DISL:BSCA:1,2018-03-10T11:30:00Z,30.3288,-87.8293,1.816,6.56,1111122 
DISL,ioos:station:DISL:BSCA:1,2018-03-10T12:30:00Z,30.3288,-87.8293,1.821,7.98,1111122 
DISL,ioos:station:DISL:BSCA:1,2018-03-10T13:00:00Z,30.3288,-87.8293,1.84,8.63,1111122 
DISL,ioos:station:DISL:BSCA:1,2018-03-11T23:30:00Z,30.3288,-87.8293,2.188,9.21,1111122 
DISL,ioos:station:DISL:BSCA:1,2018-03-12T00:30:00Z,30.3288,-87.8293,2.345,9.65,1111122 
DISL,ioos:station:DISL:BSCA:1,2018-03-12T01:30:00Z,30.3288,-87.8293,2.379,10.06,1111122 
DISL,ioos:station:DISL:BSCA:1,2018-03-12T03:30:00Z,30.3288,-87.8293,2.287,9.99,1111122 
DISL,ioos:station:DISL:BSCA:1,2018-03-12T07:30:00Z,30.3288,-87.8293,2.106,10.63,1111122 
DISL,ioos:station:DISL:BSCA:1,2018-03-12T08:30:00Z,30.3288,-87.8293,2.032,10.46,1111122 
DISL,ioos:station:DISL:BSCA:1,2018-03-12T09:30:00Z,30.3288,-87.8293,1.958,7.91,1111122 
DISL,ioos:station:DISL:BSCA:1,2018-03-12T10:30:00Z,30.3288,-87.8293,1.91,7.29,1111122 
DISL,ioos:station:DISL:BSCA:1,2018-03-12T11:30:00Z,30.3288,-87.8293,1.879,7.64,1111122 
DISL,ioos:station:DISL:BSCA:1,2018-03-12T12:30:00Z,30.3288,-87.8293,1.752,7.63,1111122 
DISL,ioos:station:DISL:BSCA:1,2018-03-12T13:30:00Z,30.3288,-87.8293,1.767,7.93,1111122 
DISL,ioos:station:DISL:BSCA:1,2018-03-12T14:30:00Z,30.3288,-87.8293,1.835,8.22,1111122 
DISL,ioos:station:DISL:BSCA:1,2018-03-12T15:30:00Z,30.3288,-87.8293,1.781,8.01,1111122 
DISL,ioos:station:DISL:BSCA:1,2018-03-12T16:30:00Z,30.3288,-87.8293,1.731,8.14,1111122 
DISL,ioos:station:DISL:BSCA:1,2018-03-12T17:30:00Z,30.3288,-87.8293,1.755,8.09,1111122 
DISL,ioos:station:DISL:BSCA:1,2018-03-12T18:30:00Z,30.3288,-87.8293,1.809,8.29,1111122 
DISL,ioos:station:DISL:BSCA:1,2018-03-12T19:30:00Z,30.3288,-87.8293,1.852,8.12,1111122 
DISL,ioos:station:DISL:BSCA:1,2018-03-12T20:30:00Z,30.3288,-87.8293,1.897,8.07,1111122 
DISL,ioos:station:DISL:BSCA:1,2018-03-12T21:30:00Z,30.3288,-87.8293,1.948,8.06,1111122 
DISL,ioos:station:DISL:BSCA:1,2018-03-12T22:30:00Z,30.3288,-87.8293,2.02,8.04,1111122 
DISL,ioos:station:DISL:BSCA:1,2018-03-12T23:30:00Z,30.3288,-87.8293,2.072,8.0,1111122 
DISL,ioos:station:DISL:BSCA:1,2018-03-13T00:30:00Z,30.3288,-87.8293,2.072,7.93,1111122 
DISL,ioos:station:DISL:BSCA:1,2018-03-13T01:30:00Z,30.3288,-87.8293,2.045,8.0,1111122 
DISL,ioos:station:DISL:BSCA:1,2018-03-13T02:30:00Z,30.3288,-87.8293,2.008,7.79,1111122 
DISL,ioos:station:DISL:BSCA:1,2018-03-13T03:30:00Z,30.3288,-87.8293,1.967,7.63,1111122 
DISL,ioos:station:DISL:BSCA:1,2018-03-13T04:30:00Z,30.3288,-87.8293,1.927,8.07,1111122 
DISL,ioos:station:DISL:BSCA:1,2018-03-13T05:30:00Z,30.3288,-87.8293,1.877,7.95,1111122 
DISL,ioos:station:DISL:BSCA:1,2018-03-13T06:30:00Z,30.3288,-87.8293,1.809,7.99,1111122 
DISL,ioos:station:DISL:BSCA:1,2018-03-13T07:30:00Z,30.3288,-87.8293,1.784,7.81,1111122 
DISL,ioos:station:DISL:BSCA:1,2018-03-13T08:30:00Z,30.3288,-87.8293,1.77,7.73,1111122 
DISL,ioos:station:DISL:BSCA:1,2018-03-13T09:30:00Z,30.3288,-87.8293,1.698,7.68,1111122 
DISL,ioos:station:DISL:BSCA:1,2018-03-13T10:30:00Z,30.3288,-87.8293,1.602,7.64,1111122 
DISL,ioos:station:DISL:BSCA:1,2018-03-13T12:00:00Z,30.3288,-87.8293,1.527,7.47,1111122 
DISL,ioos:station:DISL:BSCA:1,2018-03-13T13:00:00Z,30.3288,-87.8293,1.536,7.42,1111122 
DISL,ioos:station:DISL:BSCA:1,2018-03-14T03:30:00Z,30.3288,-87.8293,2.048,7.66,1111122 
DISL,ioos:station:DISL:BSCA:1,2018-03-14T04:30:00Z,30.3288,-87.8293,1.996,7.56,1111122 
DISL,ioos:station:DISL:BSCA:1,2018-03-14T05:30:00Z,30.3288,-87.8293,1.926,7.6,1111122 
DISL,ioos:station:DISL:BSCA:1,2018-03-14T06:30:00Z,30.3288,-87.8293,1.885,7.67,1111122 
DISL,ioos:station:DISL:BSCA:1,2018-03-14T08:00:00Z,30.3288,-87.8293,1.824,7.23,1111122 
DISL,ioos:station:DISL:BSCA:1,2018-03-14T09:00:00Z,30.3288,-87.8293,1.73,7.48,1111122 
DISL,ioos:station:DISL:BSCA:1,2018-03-14T09:30:00Z,30.3288,-87.8293,1.676,7.36,1111122 
DISL,ioos:station:DISL:BSCA:1,2018-03-14T11:00:00Z,30.3288,-87.8293,1.582,7.61,1111122 
DISL,ioos:station:DISL:BSCA:1,2018-03-14T12:00:00Z,30.3288,-87.8293,1.59,7.73,1111122 
DISL,ioos:station:DISL:BSCA:1,2018-03-14T12:30:00Z,30.3288,-87.8293,1.601,7.63,1111122 
DISL,ioos:station:DISL:BSCA:1,2018-03-14T18:00:00Z,30.3288,-87.8293,1.81,7.01,1111122 
DISL,ioos:station:DISL:BSCA:1,2018-03-15T00:00:00Z,30.3288,-87.8293,2.049,7.04,1111122 
DISL,ioos:station:DISL:BSCA:1,2018-03-15T01:00:00Z,30.3288,-87.8293,2.081,7.05,1111122 
DISL,ioos:station:DISL:BSCA:1,2018-03-15T02:00:00Z,30.3288,-87.8293,2.097,7.06,1111122 
DISL,ioos:station:DISL:BSCA:1,2018-03-15T02:30:00Z,30.3288,-87.8293,2.092,7.07,1111122 
DISL,ioos:station:DISL:BSCA:1,2018-03-15T03:30:00Z,30.3288,-87.8293,2.063,7.12,1111122 
DISL,ioos:station:DISL:BSCA:1,2018-03-15T04:30:00Z,30.3288,-87.8293,1.992,7.17,1111122 
DISL,ioos:station:DISL:BSCA:1,2018-03-15T05:30:00Z,30.3288,-87.8293,1.936,7.2,1111122 
DISL,ioos:station:DISL:BSCA:1,2018-03-15T06:30:00Z,30.3288,-87.8293,1.898,7.2,1111122 
DISL,ioos:station:DISL:BSCA:1,2018-03-15T07:30:00Z,30.3288,-87.8293,1.847,7.27,1111122 
DISL,ioos:station:DISL:BSCA:1,2018-03-15T08:00:00Z,30.3288,-87.8293,1.821,7.29,1111122 
DISL,ioos:station:DISL:BSCA:1,2018-03-15T12:00:00Z,30.3288,-87.8293,1.666,7.13,1111122 
DISL,ioos:station:DISL:BSCA:1,2018-03-15T13:00:00Z,30.3288,-87.8293,1.66,7.11,1111122 
DISL,ioos:station:DISL:BSCA:1,2018-03-15T14:00:00Z,30.3288,-87.8293,1.673,7.12,1111122 
DISL,ioos:station:DISL:BSCA:1,2018-03-15T15:00:00Z,30.3288,-87.8293,1.692,7.13,1111122 
DISL,ioos:station:DISL:BSCA:1,2018-03-15T16:00:00Z,30.3288,-87.8293,1.735,7.12,1111122 
DISL,ioos:station:DISL:BSCA:1,2018-03-16T00:00:00Z,30.3288,-87.8293,1.989,7.16,1111122 
DISL,ioos:station:DISL:BSCA:1,2018-03-16T01:00:00Z,30.3288,-87.8293,2.012,7.09,1111122 
DISL,ioos:station:DISL:BSCA:1,2018-03-16T01:30:00Z,30.3288,-87.8293,2.042,7.04,1111122 
DISL,ioos:station:DISL:BSCA:1,2018-03-16T03:00:00Z,30.3288,-87.8293,2.058,7.01,1111122 
DISL,ioos:station:DISL:BSCA:1,2018-03-16T04:00:00Z,30.3288,-87.8293,2.058,7.0,1111122 
DISL,ioos:station:DISL:BSCA:1,2018-03-16T05:00:00Z,30.3288,-87.8293,2.047,7.02,1111122 
DISL,ioos:station:DISL:BSCA:1,2018-03-16T06:00:00Z,30.3288,-87.8293,2.028,7.04,1111122 
DISL,ioos:station:DISL:BSCA:1,2018-03-16T06:30:00Z,30.3288,-87.8293,2.011,7.05,1111122 
DISL,ioos:station:DISL:BSCA:1,2018-03-16T07:30:00Z,30.3288,-87.8293,1.961,7.09,1111122 
DISL,ioos:station:DISL:BSCA:1,2018-03-16T09:00:00Z,30.3288,-87.8293,1.884,7.14,1111122 
DISL,ioos:station:DISL:BSCA:1,2018-03-16T10:00:00Z,30.3288,-87.8293,1.816,7.02,1111122 
DISL,ioos:station:DISL:BSCA:1,2018-03-16T11:00:00Z,30.3288,-87.8293,1.786,7.13,1111122 
DISL,ioos:station:DISL:BSCA:1,2018-03-16T12:00:00Z,30.3288,-87.8293,1.761,7.11,1111122 
DISL,ioos:station:DISL:BSCA:1,2018-03-16T13:00:00Z,30.3288,-87.8293,1.766,7.07,1111122 
DISL,ioos:station:DISL:BSCA:1,2018-03-16T14:00:00Z,30.3288,-87.8293,1.776,7.04,1111122 
DISL,ioos:station:DISL:BSCA:1,2018-03-16T15:00:00Z,30.3288,-87.8293,1.791,6.65,1111122 
DISL,ioos:station:DISL:BSCA:1,2018-03-16T16:00:00Z,30.3288,-87.8293,1.834,6.69,1111122 
DISL,ioos:station:DISL:BSCA:1,2018-03-16T17:00:00Z,30.3288,-87.8293,1.886,6.97,1111122 
DISL,ioos:station:DISL:BSCA:1,2018-03-16T18:00:00Z,30.3288,-87.8293,1.944,7.01,1111122 
DISL,ioos:station:DISL:BSCA:1,2018-03-16T19:00:00Z,30.3288,-87.8293,1.947,6.99,1111122 
DISL,ioos:station:DISL:BSCA:1,2018-03-16T19:30:00Z,30.3288,-87.8293,1.944,7.06,1111122 
DISL,ioos:station:DISL:BSCA:1,2018-03-20T11:00:00Z,30.3288,-87.8293,2.166,7.11,1111122 
DISL,ioos:station:DISL:BSCA:1,2018-03-20T11:30:00Z,30.3288,-87.8293,2.139,7.15,1111122 
DISL,ioos:station:DISL:BSCA:1,2018-03-20T12:30:00Z,30.3288,-87.8293,2.12,7.16,1111122 
DISL,ioos:station:DISL:BSCA:1,2018-03-20T18:00:00Z,30.3288,-87.8293,2.194,7.03,1111122 
DISL,ioos:station:DISL:BSCA:1,2018-03-20T19:00:00Z,30.3288,-87.8293,2.238,7.03,1111122 
DISL,ioos:station:DISL:BSCA:1,2018-03-20T20:00:00Z,30.3288,-87.8293,2.232,7.04,1111122 
DISL,ioos:station:DISL:BSCA:1,2018-03-20T21:00:00Z,30.3288,-87.8293,2.155,7.08,1111122 
DISL,ioos:station:DISL:BSCA:1,2018-03-20T22:00:00Z,30.3288,-87.8293,2.119,7.08,1111122 
DISL,ioos:station:DISL:BSCA:1,2018-03-20T22:30:00Z,30.3288,-87.8293,2.085,7.1,1111122 
DISL,ioos:station:DISL:BSCA:1,2018-03-20T23:30:00Z,30.3288,-87.8293,2.04,7.33,1111122 
DISL,ioos:station:DISL:BSCA:1,2018-03-21T00:30:00Z,30.3288,-87.8293,2.019,7.36,1111122 
DISL,ioos:station:DISL:BSCA:1,2018-03-21T01:30:00Z,30.3288,-87.8293,1.97,7.34,1111122 
DISL,ioos:station:DISL:BSCA:1,2018-03-21T02:30:00Z,30.3288,-87.8293,1.845,7.06,1111122 
DISL,ioos:station:DISL:BSCA:1,2018-03-21T03:30:00Z,30.3288,-87.8293,1.785,6.88,1111122 
DISL,ioos:station:DISL:BSCA:1,2018-03-21T04:30:00Z,30.3288,-87.8293,1.758,6.86,1111122 
DISL,ioos:station:DISL:BSCA:1,2018-03-21T05:30:00Z,30.3288,-87.8293,1.761,6.98,1111122 
DISL,ioos:station:DISL:BSCA:1,2018-03-21T06:30:00Z,30.3288,-87.8293,1.777,7.1,1111122 
DISL,ioos:station:DISL:BSCA:1,2018-03-21T07:30:00Z,30.3288,-87.8293,1.802,7.03,1111122 
DISL,ioos:station:DISL:BSCA:1,2018-03-21T08:30:00Z,30.3288,-87.8293,1.815,6.79,1111122 
DISL,ioos:station:DISL:BSCA:1,2018-03-21T09:30:00Z,30.3288,-87.8293,1.892,6.76,1111122 
DISL,ioos:station:DISL:BSCA:1,2018-03-21T10:30:00Z,30.3288,-87.8293,1.924,6.73,1111122 
DISL,ioos:station:DISL:BSCA:1,2018-03-21T11:30:00Z,30.3288,-87.8293,1.965,6.57,1111122 
DISL,ioos:station:DISL:BSCA:1,2018-03-21T12:30:00Z,30.3288,-87.8293,2.0,6.64,1111122 
DISL,ioos:station:DISL:BSCA:1,2018-03-21T14:00:00Z,30.3288,-87.8293,1.984,6.65,1111122 
DISL,ioos:station:DISL:BSCA:1,2018-03-21T15:00:00Z,30.3288,-87.8293,2.017,6.83,1111122 
DISL,ioos:station:DISL:BSCA:1,2018-03-21T15:30:00Z,30.3288,-87.8293,2.012,6.93,1111122 
DISL,ioos:station:DISL:BSCA:1,2018-03-21T17:00:00Z,30.3288,-87.8293,2.024,6.35,1111122 
DISL,ioos:station:DISL:BSCA:1,2018-03-21T18:30:00Z,30.3288,-87.8293,2.013,6.71,1111122 
DISL,ioos:station:DISL:BSCA:1,2018-03-21T19:30:00Z,30.3288,-87.8293,2.018,6.52,1111122 
DISL,ioos:station:DISL:BSCA:1,2018-03-21T21:00:00Z,30.3288,-87.8293,1.994,6.27,1111122 
DISL,ioos:station:DISL:BSCA:1,2018-03-21T22:00:00Z,30.3288,-87.8293,1.973,6.59,1111122 
DISL,ioos:station:DISL:BSCA:1,2018-03-21T23:00:00Z,30.3288,-87.8293,1.919,6.43,1111122 
DISL,ioos:station:DISL:BSCA:1,2018-03-21T23:30:00Z,30.3288,-87.8293,1.873,5.5,1111122 
DISL,ioos:station:DISL:BSCA:1,2018-03-22T00:30:00Z,30.3288,-87.8293,1.834,4.51,1111122 
DISL,ioos:station:DISL:BSCA:1,2018-03-22T01:30:00Z,30.3288,-87.8293,1.77,4.18,1111122 
DISL,ioos:station:DISL:BSCA:1,2018-03-22T02:30:00Z,30.3288,-87.8293,1.695,4.44,1111122 
DISL,ioos:station:DISL:BSCA:1,2018-03-22T03:30:00Z,30.3288,-87.8293,1.653,4.5,1111122 
DISL,ioos:station:DISL:BSCA:1,2018-03-22T04:30:00Z,30.3288,-87.8293,1.624,4.9,1111122 
DISL,ioos:station:DISL:BSCA:1,2018-03-22T05:30:00Z,30.3288,-87.8293,1.59,5.31,1111122 
DISL,ioos:station:DISL:BSCA:1,2018-03-22T06:30:00Z,30.3288,-87.8293,1.539,5.46,1111122 
DISL,ioos:station:DISL:BSCA:1,2018-03-22T07:30:00Z,30.3288,-87.8293,1.505,5.8,1111122 
DISL,ioos:station:DISL:BSCA:1,2018-03-22T08:30:00Z,30.3288,-87.8293,1.513,5.85,1111122 
DISL,ioos:station:DISL:BSCA:1,2018-03-22T09:30:00Z,30.3288,-87.8293,1.544,5.97,1111122 
DISL,ioos:station:DISL:BSCA:1,2018-03-22T10:30:00Z,30.3288,-87.8293,1.587,6.13,1111122 
DISL,ioos:station:DISL:BSCA:1,2018-03-22T11:30:00Z,30.3288,-87.8293,1.639,6.25,1111122 
DISL,ioos:station:DISL:BSCA:1,2018-03-22T12:30:00Z,30.3288,-87.8293,1.67,6.21,1111122 
DISL,ioos:station:DISL:BSCA:1,2018-03-22T13:30:00Z,30.3288,-87.8293,1.706,6.19,1111122 
DISL,ioos:station:DISL:BSCA:1,2018-03-22T17:00:00Z,30.3288,-87.8293,1.945,6.5,1111122 
DISL,ioos:station:DISL:BSCA:1,2018-03-22T17:30:00Z,30.3288,-87.8293,1.976,6.52,1111122 
DISL,ioos:station:DISL:BSCA:1,2018-03-22T19:00:00Z,30.3288,-87.8293,2.03,6.45,1111122 
DISL,ioos:station:DISL:BSCA:1,2018-03-22T19:30:00Z,30.3288,-87.8293,2.036,6.19,1111122 
DISL,ioos:station:DISL:BSCA:1,2018-03-22T20:30:00Z,30.3288,-87.8293,2.0,6.14,1111122 
DISL,ioos:station:DISL:BSCA:1,2018-03-22T22:00:00Z,30.3288,-87.8293,1.958,6.02,1111122 
DISL,ioos:station:DISL:BSCA:1,2018-03-22T22:30:00Z,30.3288,-87.8293,1.945,5.84,1111122 
DISL,ioos:station:DISL:BSCA:1,2018-03-22T23:30:00Z,30.3288,-87.8293,1.928,5.12,1111122 
DISL,ioos:station:DISL:BSCA:1,2018-03-23T00:30:00Z,30.3288,-87.8293,1.868,5.26,1111122 
DISL,ioos:station:DISL:BSCA:1,2018-03-23T01:30:00Z,30.3288,-87.8293,1.782,4.53,1111122 
DISL,ioos:station:DISL:BSCA:1,2018-03-23T02:30:00Z,30.3288,-87.8293,1.728,4.69,1111122 